Weather reports worldwide

Advertisment
Pau, France (7610): temperature & dewpoint: 27.06.2020 19:00:00 - 03.07.2020 19:00:00 (CEST)Pau, France (7610): temperature 5cm: 27.06.2020 19:00:00 - 03.07.2020 19:00:00 (CEST)Pau, France (7610): temperature -20cm & temperature -100cm: 27.06.2020 19:00:00 - 03.07.2020 19:00:00 (CEST)Pau, France (7610): wind speed & gusts: 27.06.2020 19:00:00 - 03.07.2020 19:00:00 (CEST)Pau, France (7610): wind direction: 27.06.2020 19:00:00 - 03.07.2020 19:00:00 (CEST)Pau, France (7610): reduced air pressure: 27.06.2020 19:00:00 - 03.07.2020 19:00:00 (CEST)Pau, France (7610): visibility: 27.06.2020 19:00:00 - 03.07.2020 19:00:00 (CEST)Pau, France (7610): sunshine duration: 27.06.2020 19:00:00 - 03.07.2020 19:00:00 (CEST)Pau, France (7610): precipitation: 27.06.2020 19:00:00 - 03.07.2020 19:00:00 (CEST)
Date & Time tt [°C] td [°C] tt 5cm [°C] tt -20cm [°C] tt -100cm [°C] ff [km/h] ff [kn] fx [km/h] fx [kn] dd ppp [hPa] vv [km] sd [min] rr [mm]
03.07.2020 19:00:00 20,5 12,5 21,7 20,3 18,5 12 7 24 13 NW 1023,1 51 0 0,0
03.07.2020 18:00:00 21,1 11,7 23,7 20,2 18,5 14 7 28 15 WNW 1023,1 41 10 0,0
03.07.2020 17:00:00 21,4 12,3 26,0 20,2 18,4 11 6 26 14 N 1023,1 42 42 0,0
03.07.2020 16:00:00 21,8 10,3 27,6 20,1 18,4 11 6 23 13 W 1023,3 40 49 0,0
03.07.2020 15:00:00 20,6 12,0 24,2 20,1 18,4 10 6 24 13 W 1023,6 45 0 0,0
03.07.2020 14:00:00 20,1 12,1 25,4 20,1 18,4 3 2 19 10 E 1023,9 50 32 0,0
03.07.2020 13:00:00 19,7 12,5 22,2 20,1 18,4 2 1 18 10 E 1024,2 43 4 0,0
03.07.2020 12:00:00 18,3 12,5 22,0 20,1 18,4 8 4 16 9 N 1024,4 34 7 0,0
03.07.2020 11:00:00 18,7 13,3 21,7 20,2 18,4 4 2 18 10 SW 1023,8 20 26 0,0
03.07.2020 10:00:00 19,0 12,5 22,9 20,2 18,4 5 3 13 7 ENE 1023,7 29 57 0,0
03.07.2020 09:00:00 16,4 15,3 17,4 20,3 18,4 5 3 9 5 N 1024,0 25 52 0,0
03.07.2020 08:00:00 15,4 15,4 11,0 20,3 18,4 0 0 7 4 N 1023,7 13 43 0,0
03.07.2020 07:00:00 13,0 12,7 8,9 20,4 18,4 3 1 7 4 E 1023,6 0,2 0 0,2
03.07.2020 06:00:00 13,5 13,0 9,6 20,4 18,4 3 2 5 3 E 1023,5 0,3 0 0,0
03.07.2020 05:00:00 14,6 14,1 11,8 20,5 18,4 3 2 7 4 SSW 1023,2 0,4 0 0,0
03.07.2020 04:00:00 15,2 14,6 14,1 20,5 18,4 5 3 7 4 SSW 1023,4 16 0 0,0
03.07.2020 03:00:00 15,3 14,7 14,3 20,5 18,4 3 1 4 2 S 1023,4 16 0 0,0
03.07.2020 02:00:00 15,5 14,9 15,0 20,6 18,4 3 1 5 3 SW 1023,4 18 0 0,0
03.07.2020 01:00:00 15,5 14,9 15,1 20,6 18,4 3 1 7 4 S 1023,3 15 0 0,0
03.07.2020 00:00:00 15,5 14,9 14,9 20,6 18,4 4 2 10 5 SSW 1023,1 22 0 0,0
02.07.2020 23:00:00 15,5 14,9 14,9 20,6 18,4 6 4 11 6 S 1022,8 20 0 0,0
02.07.2020 22:00:00 15,6 14,8 15,2 20,7 18,4 9 5 14 8 S 1022,1 17 11 0,0
02.07.2020 21:00:00 15,9 15,3 15,7 20,7 18,4 6 3 10 6 SSW 1022,0 9 3 0,2
02.07.2020 20:00:00 16,0 15,0 15,9 20,6 18,4 9 5 16 8 WNW 1021,6 1,4 0 0,8
02.07.2020 19:00:00 17,1 14,0 16,2 20,7 18,4 5 3 19 10 SW 1020,9 42 0 0,2
02.07.2020 18:00:00 15,4 13,9 15,9 20,6 18,4 14 8 30 16 NNW 1021,1 2,5 0 0,2
02.07.2020 17:00:00 16,5 15,2 16,9 20,6 18,4 13 7 34 18 NW 1020,6 5 0 0,0
02.07.2020 16:00:00 17,7 15,5 18,9 20,6 18,4 12 6 26 14 NNW 1020,2 36 0 0,0
02.07.2020 15:00:00 16,9 15,9 18,1 20,6 18,4 17 9 27 14 NNW 1019,8 6 0 0,2
02.07.2020 14:00:00 18,4 16,0 20,1 20,6 18,4 9 5 18 10 N 1019,5 2,8 0 0,0
02.07.2020 13:00:00 19,1 15,2 20,1 20,6 18,4 5 3 13 7 WNW 1019,2 50 0 0,0
02.07.2020 12:00:00 17,3 16,0 18,3 20,7 18,4 5 3 16 9 N 1019,1 12 0 0,2
02.07.2020 11:00:00 16,8 16,0 18,3 20,7 18,4 9 5 16 9 NNE 1018,9 2,7 0 0,0
02.07.2020 10:00:00 16,3 15,7 16,8 20,7 18,3 9 5 14 8 N 1018,9 3,8 0 0,2
02.07.2020 09:00:00 16,0 15,7 16,2 20,7 18,3 9 5 15 8 N 1018,6 1,6 0 0,8
02.07.2020 08:00:00 16,0 15,4 16,0 20,8 18,4 6 3 23 13 NNW 1018,0 2,2 0 0,6
02.07.2020 07:00:00 16,7 15,6 16,3 20,8 18,3 3 2 14 8 WNW 1017,8 3,0 0 0,2
02.07.2020 06:00:00 17,0 15,9 16,3 20,8 18,3 8 4 22 12 NE 1017,0 24 0 0,2
02.07.2020 05:00:00 17,1 15,4 16,6 20,9 18,4 7 4 15 8 N 1016,9 7 0 0,0
02.07.2020 04:00:00 17,4 16,4 16,6 20,9 18,3 9 5 22 12 N 1017,0 4,7 0 0,6
02.07.2020 03:00:00 18,4 17,9 18,1 20,9 18,3 6 3 10 6 SW 1017,0 5 0 0,6
02.07.2020 02:00:00 18,4 17,6 18,0 20,9 18,3 3 2 10 6 WNW 1017,3 7 0 1,0
02.07.2020 01:00:00 18,9 17,7 18,3 20,9 18,3 4 2 11 6 SSW 1017,3 3,7 0 0,2
02.07.2020 00:00:00 19,1 17,6 18,4 20,9 18,3 10 5 16 8 WNW 1017,1 7 0 0,0
01.07.2020 23:00:00 19,7 17,7 18,9 20,9 18,3 6 3 12 6 W 1016,9 26 0 0,0
01.07.2020 22:00:00 19,9 17,5 19,0 20,9 18,3 6 4 11 6 W 1016,2 20 0 0,0
01.07.2020 21:00:00 19,8 17,8 19,0 20,9 18,3 8 5 19 10 W 1016,2 20 0 0,0
01.07.2020 20:00:00 20,5 17,7 20,4 20,9 18,3 14 8 21 11 WNW 1015,8 29 0 0,0
01.07.2020 19:00:00 21,1 17,3 21,3 20,9 18,3 12 7 21 12 W 1015,3 37 0 0,0
01.07.2020 18:00:00 21,5 16,9 22,6 20,8 18,3 14 7 22 12 W 1015,5 41 0 0,0
01.07.2020 17:00:00 22,4 17,7 23,6 20,9 18,3 11 6 22 12 W 1015,4 49 0 0,0
01.07.2020 16:00:00 21,9 17,3 22,9 20,8 18,3 13 7 25 13 WNW 1015,3 30 0 0,0
01.07.2020 15:00:00 21,7 17,1 23,5 20,8 18,3 12 6 26 14 NW 1015,0 35 0 0,0
01.07.2020 14:00:00 21,8 17,6 24,2 20,8 18,3 10 5 18 10 WNW 1014,6 35 0 0,0
01.07.2020 13:00:00 21,1 17,7 22,2 20,9 18,3 12 7 22 12 W 1014,4 19 0 0,0
01.07.2020 12:00:00 20,5 17,7 20,1 20,9 18,3 10 5 21 11 W 1014,0 19 0 0,0
01.07.2020 11:00:00 19,7 18,4 19,6 20,9 18,3 12 7 20 11 WSW 1013,7 15 0 0,0
01.07.2020 10:00:00 19,0 18,2 18,7 21,0 18,3 11 6 18 10 WSW 1013,6 17 0 1,0
01.07.2020 09:00:00 19,0 17,8 18,6 21,0 18,3 13 7 24 13 W 1013,1 13 0 0,2
01.07.2020 08:00:00 18,9 18,1 18,4 21,0 18,3 13 7 24 13 W 1012,8 14 0 0,0
01.07.2020 07:00:00 18,7 18,0 18,1 21,0 18,3 13 7 22 12 W 1012,5 8 0 0,0
01.07.2020 06:00:00 18,5 17,8 17,9 21,1 18,3 10 6 23 12 W 1011,9 10 0 0,8
01.07.2020 05:00:00 18,3 17,5 17,1 21,1 18,3 11 6 29 16 W 1012,0 11 0 0,0
01.07.2020 04:00:00 18,3 17,1 15,9 21,1 18,3 15 8 22 12 W 1011,9 27 0 0,0
01.07.2020 03:00:00 18,9 16,9 15,7 21,1 18,3 11 6 16 9 WSW 1011,5 59 0 0,0
01.07.2020 02:00:00 19,8 16,6 16,4 21,1 18,3 0 0 7 4 N 1011,9 58 0 0,0
01.07.2020 01:00:00 21,4 17,2 18,7 21,1 18,3 7 4 15 8 SW 1012,1 48 0 0,0
01.07.2020 00:00:00 23,0 17,0 20,6 21,1 18,3 12 6 18 10 ESE 1011,6 53 0 0,0
30.06.2020 23:00:00 22,8 16,6 19,8 21,0 18,3 5 3 12 7 N 1012,4 46 0 0,0
30.06.2020 22:00:00 24,4 16,1 21,9 21,0 18,3 6 4 14 8 ENE 1011,8 60 18 0,0
30.06.2020 21:00:00 26,2 15,9 25,0 20,9 18,2 9 5 15 8 NE 1011,5 57 60 0,0
30.06.2020 20:00:00 27,4 14,8 28,4 20,7 18,2 8 5 16 9 ENE 1011,6 50 60 0,0
30.06.2020 19:00:00 27,9 14,5 30,9 20,7 18,3 9 5 21 12 NE 1011,9 41 60 0,0
30.06.2020 18:00:00 27,7 14,7 33,1 20,6 18,2 6 3 18 10 E 1012,4 20 60 0,0
30.06.2020 17:00:00 27,1 13,8 35,6 20,5 18,2 3 2 20 11 S 1013,0 20 60 0,0
30.06.2020 16:00:00 26,3 14,4 33,0 20,4 18,3 5 3 25 13 NNE 1013,7 41 60 0,0
30.06.2020 15:00:00 25,3 14,1 36,3 20,3 18,2 9 5 24 13 NNE 1014,2 57 60 0,0
30.06.2020 14:00:00 24,4 14,2 33,8 20,3 18,2 7 4 16 8 ENE 1014,9 43 60 0,0
30.06.2020 13:00:00 23,3 14,0 32,7 20,3 18,2 7 4 14 8 NE 1015,7 39 60 0,0
30.06.2020 12:00:00 21,7 14,6 30,6 20,3 18,2 7 4 20 11 NNE 1016,1 47 55 0,0
30.06.2020 11:00:00 21,0 14,4 25,2 20,3 18,2 8 5 18 10 S 1016,5 18 55 0,0
30.06.2020 10:00:00 19,3 13,9 21,8 20,4 18,2 7 4 14 8 ESE 1016,9 8 40 0,0
30.06.2020 09:00:00 17,8 13,7 17,5 20,4 18,2 7 4 14 8 E 1017,3 28 2 0,0
30.06.2020 08:00:00 16,2 13,1 15,4 20,5 18,2 8 5 13 7 ENE 1017,7 29 4 0,0
30.06.2020 07:00:00 15,3 13,3 14,1 20,5 18,2 6 4 9 5 NNE 1017,7 19 0 0,0
30.06.2020 06:00:00 15,1 13,5 13,7 20,5 18,2 5 3 9 5 N 1018,0 17 0 0,0
30.06.2020 05:00:00 15,2 13,7 13,2 20,6 18,2 4 2 5 3 NNE 1018,2 42 0 0,0
30.06.2020 04:00:00 16,1 13,6 14,0 20,6 18,2 3 1 8 4 N 1018,4 52 0 0,0
30.06.2020 03:00:00 16,8 13,5 15,3 20,6 18,2 5 3 7 4 N 1018,7 54 0 0,0
30.06.2020 02:00:00 17,3 13,4 16,4 20,6 18,2 5 3 14 7 NW 1019,2 50 0 0,0
30.06.2020 01:00:00 17,7 13,4 17,0 20,6 18,2 9 5 16 9 NW 1019,5 49 0 0,0
30.06.2020 00:00:00 18,2 13,9 17,3 20,7 18,2 11 6 16 9 WNW 1019,4 49 0 0,0
29.06.2020 23:00:00 18,6 16,0 17,9 20,7 18,2 8 4 14 8 SW 1019,3 32 0 0,0
29.06.2020 22:00:00 19,0 16,0 18,4 20,7 18,2 8 4 15 8 SW 1019,0 28 0 0,0
29.06.2020 21:00:00 19,9 14,5 19,6 20,7 18,2 6 4 14 8 W 1019,1 57 0 0,0
29.06.2020 20:00:00 20,4 15,0 21,2 20,7 18,2 9 5 18 10 W 1019,2 56 0 0,0
29.06.2020 19:00:00 20,3 15,3 21,3 20,7 18,2 10 5 16 9 W 1019,4 49 0 0,0
29.06.2020 18:00:00 20,6 15,4 23,8 20,7 18,2 10 5 26 14 W 1019,7 47 0 0,0
29.06.2020 17:00:00 20,1 15,3 22,2 20,7 18,2 7 4 15 8 WNW 1020,1 43 0 0,0
29.06.2020 16:00:00 19,6 15,5 20,7 20,7 18,0 7 4 21 12 WNW 1020,6 45 0 0,0
29.06.2020 15:00:00 19,3 15,4 19,6 20,7 18,1 9 5 21 11 WNW 1021,0 45 0 0,0
29.06.2020 14:00:00 18,9 15,4 20,5 20,7 18,1 14 7 20 11 WNW 1021,2 43 0 0,0
29.06.2020 13:00:00 19,2 15,5 20,4 20,7 18,1 12 7 18 10 WNW 1021,3 51 0 0,0
29.06.2020 12:00:00 18,1 16,6 18,1 20,8 18,1 6 3 18 10 NW 1021,4 38 0 0,0
29.06.2020 11:00:00 17,6 15,8 18,8 20,8 18,1 13 7 20 11 WNW 1021,2 5 0 0,0
29.06.2020 10:00:00 18,2 15,6 17,8 20,8 18,1 14 8 25 13 WNW 1021,1 39 0 0,0
29.06.2020 09:00:00 17,9 16,6 17,3 20,8 18,1 15 8 23 12 W 1021,0 38 0 0,0
29.06.2020 08:00:00 17,5 16,7 17,4 20,9 18,1 11 6 25 13 NW 1020,7 10 0 1,4
29.06.2020 07:00:00 18,7 17,0 18,3 20,9 18,1 8 5 16 9 WSW 1020,0 31 0 0,0
29.06.2020 06:00:00 18,7 16,8 18,4 20,9 18,1 9 5 16 9 SW 1019,8 31 0 0,0
29.06.2020 05:00:00 18,8 16,9 18,4 21,0 18,1 10 5 19 11 SW 1019,8 30 0 0,0
29.06.2020 04:00:00 18,9 16,7 18,2 21,0 18,1 9 5 16 9 WSW 1019,8 32 0 0,0
29.06.2020 03:00:00 18,8 16,4 17,6 21,0 18,1 9 5 16 9 W 1019,8 34 0 0,0
29.06.2020 02:00:00 19,5 16,2 18,6 21,0 18,1 13 7 18 10 W 1020,1 40 0 0,0
29.06.2020 01:00:00 19,9 15,7 19,1 21,1 18,1 11 6 22 12 W 1020,1 41 0 0,0
29.06.2020 00:00:00 20,6 17,6 19,1 21,1 18,1 12 7 19 10 WSW 1020,2 29 0 0,0
28.06.2020 23:00:00 20,7 17,3 16,4 21,1 18,1 6 3 13 7 SW 1020,0 27 0 0,0
28.06.2020 22:00:00 21,0 17,0 18,2 21,0 18,0 5 3 11 6 SSW 1019,6 24 18 0,0
28.06.2020 21:00:00 22,7 17,2 21,2 21,0 18,0 9 5 14 8 SW 1019,2 23 55 0,0
28.06.2020 20:00:00 23,5 17,3 23,6 21,0 18,0 9 5 18 10 SW 1018,9 28 15 0,0
28.06.2020 19:00:00 23,2 17,2 24,6 21,0 18,0 7 4 18 10 W 1019,0 31 2 0,0
28.06.2020 18:00:00 23,1 16,9 24,2 21,0 18,0 8 4 17 9 WNW 1019,1 20 0 0,0
28.06.2020 17:00:00 22,8 16,6 25,7 21,0 18,0 5 3 13 7 WNW 1019,0 30 0 0,0
28.06.2020 16:00:00 22,8 17,3 25,7 21,0 18,0 6 4 16 9 N 1019,0 35 0 0,0
28.06.2020 15:00:00 22,5 16,3 26,0 21,0 18,0 9 5 18 10 N 1019,1 32 0 0,0
28.06.2020 14:00:00 21,7 16,2 25,1 21,0 18,0 7 4 14 8 NNW 1019,2 33 0 0,0
28.06.2020 13:00:00 21,6 15,7 24,8 21,0 18,0 3 2 15 8 ENE 1019,7 40 10 0,0
28.06.2020 12:00:00 21,2 15,7 23,8 21,0 18,0 4 2 14 8 SSE 1020,0 30 0 0,0
28.06.2020 11:00:00 20,7 15,5 23,6 21,0 18,0 8 4 13 7 ESE 1020,0 38 2 0,0
28.06.2020 10:00:00 19,8 15,9 20,6 21,0 18,0 4 2 10 5 E 1020,0 43 0 0,0
28.06.2020 09:00:00 19,2 15,5 19,2 21,1 18,0 5 3 10 6 N 1020,0 34 0 0,0
28.06.2020 08:00:00 18,8 16,4 18,4 21,1 18,0 4 2 8 4 NNE 1019,6 15 0 0,0
28.06.2020 07:00:00 18,7 16,5 18,3 21,2 18,0 0 0 14 7 N 1019,5 18 0 0,0
28.06.2020 06:00:00 18,9 16,5 18,4 21,2 17,9 8 4 19 10 NNW 1019,4 18 0 0,0
28.06.2020 05:00:00 19,2 16,1 18,8 21,2 18,0 11 6 24 13 NW 1019,2 30 0 0,0
28.06.2020 04:00:00 19,4 16,2 18,8 21,2 17,9 18 10 27 15 WNW 1018,8 24 0 0,0
28.06.2020 03:00:00 21,2 16,6 20,3 21,2 17,9 12 7 18 10 WNW 1018,3 39 0 0,0
28.06.2020 02:00:00 21,7 16,9 20,8 21,2 17,9 13 7 18 10 WNW 1018,2 38 0 0,0
28.06.2020 01:00:00 22,4 16,9 21,1 21,2 17,9 2 1 17 9 WNW 1017,8 37 0 0,0
28.06.2020 00:00:00 23,2 17,9 21,6 21,2 17,9 6 4 18 10 NNW 1017,5 33 0 0,0
27.06.2020 23:00:00 23,3 19,2 20,9 21,2 17,9 3 2 8 5 NNW 1017,1 24 0 0,0
27.06.2020 22:00:00 24,1 17,8 21,3 21,1 17,9 3 1 6 3 NE 1016,2 24 18 0,0
27.06.2020 21:00:00 25,9 17,8 24,9 21,1 17,9 3 2 8 5 E 1015,7 34 32 0,0
27.06.2020 20:00:00 26,4 17,2 26,6 21,0 17,9 5 3 12 6 NNE 1015,8 36 15 0,0
27.06.2020 19:00:00 25,8 16,9 26,6 20,9 17,9 6 3 20 11 N 1015,8 37 0 0,0

tt = temperature
td = dewpoint
tt 5cm = temperature 5cm
tt -20cm = temperature -20cm
tt -100cm = temperature -100cm
ff = wind speed
fx = gusts
dd = wind direction
ppp = reduced air pressure
vv = visibility
sd = sunshine duration
rr = precipitation

Next stations